DW3560 Weather Reports


time (UTC)temp
F
wind
direction
speed
knots
gust
knots
rain 1hr
in
rain 24hr
in
rain mn
in
humidity
%
barometer
mb
20260504050502 52 254 0.9 3.5 0.00 0.00 0.00 85 1013.7
20260504050024 52 258 0.9 2.6 0.00 0.00 0.00 84 1013.7
20260504045503 52 239 0.0 2.6 0.00 0.00 0.00 84 1013.7
20260504045003 53 238 0.9 4.3 0.00 0.00 0.00 84 1013.7
20260504044503 53 242 0.9 4.3 0.00 0.00 0.00 83 1013.7
20260504044002 53 245 0.0 1.7 0.00 0.00 0.00 83 1013.7
20260504043503 53 245 0.0 1.7 0.00 0.00 0.00 83 1013.7
20260504043003 53 245 0.0 2.6 0.00 0.00 0.00 83 1013.7
20260504042503 53 247 0.9 2.6 0.00 0.00 0.00 82 1013.7
20260504042003 53 239 0.9 3.5 0.00 0.00 0.00 82 1013.7
20260504041503 53 229 0.9 3.5 0.00 0.00 0.00 82 1013.7
20260504041003 53 236 0.9 3.5 0.00 0.00 0.00 81 1013.1
20260504040502 53 239 0.9 3.5 0.00 0.00 0.00 81 1013.1
20260504040003 53 246 0.9 2.6 0.00 0.00 0.00 80 1013.1
20260504035502 53 247 0.9 2.6 0.00 0.00 0.00 80 1013.1
20260504035003 53 246 0.0 1.7 0.00 0.00 0.00 80 1013.1
20260504034503 53 239 0.0 1.7 0.00 0.00 0.00 80 1013.1
20260504034007 54 243 0.0 3.5 0.00 0.00 0.00 80 1013.1
20260504033503 54 260 0.9 3.5 0.00 0.00 0.00 79 1013.1
20260504033002 54 264 0.9 2.6 0.00 0.00 0.00 79 1013.1
20260504032504 54 263 0.9 5.2 0.00 0.00 0.00 79 1013.1
20260504032003 54 264 0.9 5.2 0.00 0.00 0.00 79 1013.1
20260504031503 54 242 0.0 4.3 0.00 0.00 0.00 79 1013.1
20260504031003 54 234 0.9 7.0 0.00 0.00 0.00 79 1012.5
20260504030503 54 239 0.9 7.0 0.00 0.00 0.00 79 1012.5
20260504030003 54 267 0.9 4.3 0.00 0.00 0.00 79 1012.5
20260504025524 55 255 0.9 7.0 0.00 0.00 0.00 79 1012.5
20260504025003 55 245 0.9 7.0 0.00 0.00 0.00 79 1012.5
20260504024503 55 221 0.9 6.1 0.00 0.00 0.00 79 1012.5
20260504024003 55 236 0.9 7.0 0.00 0.00 0.00 78 1012.5
20260504023503 55 232 0.9 7.0 0.00 0.00 0.00 78 1012.5
20260504023024 55 255 0.9 4.3 0.00 0.00 0.00 77 1012.5
20260504022524 56 303 0.0 4.3 0.00 0.00 0.00 78 1012.5
20260504022002 56 301 0.9 3.5 0.00 0.00 0.00 78 1012.5
20260504021524 56 293 0.9 3.5 0.00 0.00 0.00 77 1012.5
20260504021024 56 339 0.0 3.5 0.00 0.00 0.00 77 1012.6
20260504020503 56 347 0.9 3.5 0.00 0.00 0.00 77 1012.6
20260504020024 56 339 0.9 3.5 0.00 0.00 0.00 77 1012.6
20260504015502 56 324 0.9 7.8 0.00 0.00 0.00 77 1012.6
20260504015024 56 306 0.9 7.8 0.00 0.00 0.00 77 1012.6
20260504014524 56 290 0.9 7.0 0.00 0.00 0.00 76 1012.6
20260504014003 57 332 0.9 4.3 0.00 0.00 0.00 76 1012.6
20260504013502 57 344 0.9 3.5 0.00 0.00 0.00 75 1012.6
20260504013024 57 260 0.9 3.5 0.00 0.00 0.00 75 1012.6
20260504012503 57 249 0.9 3.5 0.00 0.00 0.00 76 1012.6
20260504012003 57 255 0.9 3.5 0.00 0.00 0.00 76 1012.6
20260504011503 57 233 0.9 3.5 0.00 0.00 0.00 75 1012.6
20260504011003 57 204 0.9 3.5 0.00 0.00 0.00 74 1012.6
20260504010503 57 220 0.9 3.5 0.00 0.00 0.00 74 1012.6
20260504010003 57 242 0.9 3.5 0.00 0.00 0.00 74 1012.6
20260504005503 57 268 0.9 4.3 0.00 0.00 0.00 74 1012.6
20260504005003 58 259 0.9 4.3 0.00 0.00 0.00 74 1012.6
20260504004503 58 250 0.9 4.3 0.00 0.00 0.00 74 1012.6
20260504004003 58 247 1.7 6.1 0.00 0.00 0.00 74 1012.6
20260504003503 58 240 0.9 6.1 0.00 0.00 0.00 73 1012.6
20260504003003 58 252 0.9 2.6 0.00 0.00 0.00 73 1012.6
20260504002503 59 250 0.9 4.3 0.00 0.00 0.00 73 1012.6
20260504002003 59 248 0.9 7.0 0.00 0.00 0.00 72 1012.6
20260504001503 58 242 1.7 7.0 0.00 0.00 0.00 72 1012.6
20260504001003 59 238 2.6 7.0 0.00 0.00 0.00 71 1012.6
20260504000503 59 248 2.6 7.0 0.00 0.00 0.00 70 1012.6
20260504000003 59 263 1.7 6.1 0.00 0.00 0.00 71 1012.6
20260503235503 59 242 1.7 7.0 0.00 0.00 0.00 72 1012.6
20260503235003 59 236 2.6 7.8 0.00 0.00 0.00 71 1012.6
20260503234524 59 241 1.7 7.8 0.00 0.00 0.00 72 1012.6
20260503234024 59 236 1.7 5.2 0.00 0.00 0.00 72 1012.6
20260503233503 59 234 1.7 9.6 0.00 0.00 0.00 72 1012.6
20260503233003 59 239 1.7 9.6 0.00 0.00 0.00 73 1012.6
20260503232503 59 242 1.7 7.0 0.00 0.00 0.00 73 1012.6
20260503232003 59 239 0.9 6.1 0.00 0.00 0.00 73 1012.6
20260503231524 59 243 0.9 3.5 0.00 0.00 0.00 73 1012.6
20260503231003 58 240 0.9 5.2 0.00 0.00 0.00 74 1012.6
20260503230503 58 233 1.7 5.2 0.00 0.00 0.00 74 1012.6
20260503230024 58 230 1.7 6.1 0.00 0.00 0.00 73 1012.6
20260503225524 58 231 1.7 6.1 0.00 0.00 0.00 73 1012.6
20260503225003 58 237 1.7 6.1 0.00 0.00 0.00 73 1012.6
20260503224503 59 226 1.7 4.3 0.00 0.00 0.00 73 1012.6
20260503224003 59 257 0.9 4.3 0.00 0.00 0.00 73 1012.6
20260503223503 59 285 0.9 3.5 0.00 0.00 0.00 73 1012.6
20260503223003 59 247 0.9 5.2 0.00 0.00 0.00 73 1012.6
20260503222503 59 248 0.9 5.2 0.00 0.00 0.00 73 1012.6
20260503222003 60 266 1.7 4.3 0.00 0.00 0.00 72 1012.6
20260503221503 60 294 0.9 4.3 0.00 0.00 0.00 72 1012.6
20260503221003 60 268 0.9 4.3 0.00 0.00 0.00 71 1012.7
20260503220503 60 243 1.7 4.3 0.00 0.00 0.00 70 1012.7
20260503220003 61 264 1.7 5.2 0.00 0.00 0.00 70 1012.7
20260503215503 61 262 1.7 5.2 0.00 0.00 0.00 71 1012.7
20260503215003 61 246 1.7 7.0 0.00 0.00 0.00 72 1012.7
20260503214503 60 243 1.7 7.0 0.00 0.00 0.00 71 1012.7
20260503214003 60 239 1.7 4.3 0.00 0.00 0.00 72 1012.7
20260503213524 60 263 0.9 3.5 0.00 0.00 0.00 73 1012.7
20260503213024 60 353 0.9 3.5 0.00 0.00 0.00 74 1012.7
20260503212524 60 250 0.9 4.3 0.00 0.00 0.00 74 1012.7
20260503212003 60 227 0.9 4.3 0.00 0.00 0.00 73 1012.7
20260503211524 60 246 0.9 4.3 0.00 0.00 0.00 73 1012.7
20260503211003 60 262 0.9 4.3 0.00 0.00 0.00 73 1012.7
20260503210503 60 263 0.9 3.5 0.00 0.00 0.00 73 1012.7
20260503210024 60 258 0.9 6.1 0.00 0.00 0.00 72 1012.7
20260503205503 60 230 0.9 6.1 0.00 0.00 0.00 72 1012.7
20260503205003 60 226 1.7 4.3 0.00 0.00 0.00 72 1012.7
20260503204503 60 238 1.7 6.1 0.00 0.00 0.00 72 1012.7
20260503204003 60 244 2.6 7.0 0.00 0.00 0.00 72 1012.7
20260503203503 60 240 2.6 7.0 0.00 0.00 0.00 70 1012.7
20260503203003 61 231 2.6 7.0 0.00 0.00 0.00 70 1012.7
20260503202503 61 228 1.7 7.0 0.00 0.00 0.00 70 1012.7
20260503202003 61 241 1.7 7.8 0.00 0.00 0.00 71 1012.7
20260503201503 60 242 1.7 7.8 0.00 0.00 0.00 73 1012.7
20260503201003 60 228 1.7 5.2 0.00 0.00 0.00 73 1010.9
20260503200503 60 237 1.7 6.1 0.00 0.00 0.00 74 1010.9
20260503200003 59 234 1.7 6.1 0.00 0.00 0.00 74 1010.9
20260503195503 59 232 2.6 6.1 0.00 0.00 0.00 73 1010.9
20260503195024 59 231 1.7 6.1 0.00 0.00 0.00 75 1010.9
20260503194503 58 219 1.7 5.2 0.00 0.00 0.00 74 1010.9
20260503194003 58 220 1.7 7.8 0.00 0.00 0.00 74 1010.9
20260503193503 58 226 1.7 7.8 0.00 0.00 0.00 73 1010.9
20260503193024 59 221 1.7 6.1 0.00 0.00 0.00 74 1010.9
20260503192503 58 222 2.6 7.0 0.00 0.00 0.00 73 1010.9
20260503192024 59 232 1.7 7.0 0.00 0.00 0.00 74 1010.9
20260503191503 59 247 1.7 7.0 0.00 0.00 0.00 76 1010.9
20260503191003 58 243 1.7 4.3 0.00 0.00 0.00 77 1010.9
20260503190503 58 223 1.7 4.3 0.00 0.00 0.00 79 1010.9
20260503190003 58 231 0.9 6.1 0.00 0.00 0.00 81 1010.9
20260503185503 57 237 0.9 6.1 0.00 0.00 0.00 81 1010.9
20260503185003 57 233 0.9 4.3 0.00 0.00 0.00 82 1010.9
20260503184524 57 246 0.9 3.5 0.00 0.00 0.00 83 1010.9
20260503184003 56 237 0.9 4.3 0.00 0.00 0.00 82 1010.9
20260503183503 56 233 0.9 4.3 0.00 0.00 0.00 83 1010.9
20260503183024 56 227 0.9 4.3 0.00 0.00 0.00 82 1010.9
20260503182503 56 215 1.7 5.2 0.00 0.00 0.00 83 1010.9
20260503182003 56 228 1.7 5.2 0.00 0.00 0.00 83 1010.9
20260503181504 56 245 0.9 3.5 0.00 0.00 0.00 83 1010.9
20260503181003 55 238 0.9 5.2 0.00 0.00 0.00 83 1010.9
20260503180503 55 238 1.7 5.2 0.00 0.00 0.00 83 1010.9
20260503180004 55 243 1.7 5.2 0.00 0.00 0.00 83 1010.9
20260503175503 55 244 1.7 9.6 0.00 0.00 0.00 83 1010.9
20260503175003 55 243 1.7 9.6 0.00 0.00 0.00 84 1010.9
20260503174524 55 231 1.7 9.6 0.00 0.00 0.00 85 1010.9
20260503174024 55 232 1.7 4.3 0.00 0.00 0.00 85 1010.9
20260503173524 55 241 1.7 5.2 0.00 0.00 0.00 86 1010.9
20260503173003 55 236 1.7 6.1 0.00 0.00 0.00 87 1010.9
20260503172503 55 227 0.9 6.1 0.00 0.00 0.00 88 1010.9
20260503172003 55 228 0.9 3.5 0.00 0.00 0.00 88 1010.9
20260503171503 54 225 0.9 4.3 0.00 0.00 0.00 89 1010.9
20260503171003 54 211 0.9 4.3 0.00 0.00 0.00 89 1010.9
20260503170503 54 222 0.9 7.0 0.00 0.00 0.00 89 1010.9
20260503151003 52 198 0.0 3.5 0.00 0.00 0.00 90 1010.9
20260503150503 52 189 0.0 3.5 0.00 0.00 0.00 90 1010.9
20260503131003 51 234 0.0 2.6 0.00 0.00 0.00 89 1010.9
20260503130503 51 236 0.0 1.7 0.00 0.00 0.00 89 1010.9
20260503110502 51 237 0.9 6.1 0.00 0.00 0.00 88 1010.9
20260503081523 51 247 0.0 4.3 0.00 0.00 0.00 89 1013.2
20260503081023 51 249 0.0 1.7 0.00 0.00 0.00 88 1013.2
20260503080523 51 244 0.0 1.7 0.00 0.00 0.00 88 1013.2
20260503072502 51 249 0.0 2.6 0.00 0.00 0.00 88 1013.2
20260503072003 51 246 0.0 3.5 0.00 0.00 0.00 88 1013.2
20260503071503 51 259 0.0 3.5 0.00 0.00 0.00 88 1013.2
20260503071002 51 285 0.0 1.7 0.00 0.00 0.00 88 1013.2
20260503070502 51 288 0.0 0.9 0.00 0.00 0.00 88 1013.2
20260503055023 52 242 0.0 3.5 0.00 0.00 0.00 88 1013.2
20260503054502 52 227 0.0 0.9 0.00 0.00 0.00 88 1013.2
20260503054002 52 299 0.0 1.7 0.00 0.00 0.00 88 1013.2
20260503053502 52 237 0.9 5.2 0.00 0.00 0.00 88 1013.2
20260503053024 52 232 0.9 5.2 0.00 0.00 0.00 87 1013.2
20260503052502 52 237 0.0 3.5 0.00 0.00 0.00 87 1013.2
20260503052002 52 215 0.0 2.6 0.00 0.00 0.00 87 1013.2
20260503051526 52 211 0.0 2.6 0.00 0.00 0.00 87 1013.2
20260503051002 52 183 0.0 3.5 0.00 0.00 0.00 88 1013.2